Location: Harwich
(41.6860°N, 70.0760°W)
Time: 18:17:25
(UTC-04:00)

BlueWalker 3 - Visible Passes

Search period start: 29 May 2023 00:00
Search period end: 08 June 2023 00:00
Orbit: 495 x 512 km, 53.2° (Epoch: 29 May)

Date Brightness Start Highest point End Pass type
(mag) Time Alt. Az. Time Alt. Az. Time Alt. Az.
29 May 5.0 00:10:05 10° NW 00:12:34 16° N 00:15:05 10° NNE visible
29 May 4.9 01:49:38 10° NNW 01:52:19 17° NNE 01:55:00 10° NE visible
29 May 3.0 03:27:46 10° NW 03:31:34 49° NNE 03:35:23 10° ESE visible
29 May 2.6 20:30:54 10° SSW 20:34:22 33° SE 20:37:52 10° ENE visible
29 May 3.5 22:09:16 10° W 22:12:51 37° NNW 22:16:30 10° NE visible
29 May 5.0 23:49:47 10° NW 23:52:15 16° N 23:54:45 10° NNE visible
30 May 4.9 01:29:18 10° NNW 01:32:00 18° NNE 01:34:41 10° ENE visible
30 May 2.9 03:07:26 10° NW 03:11:15 50° NNE 03:15:03 10° ESE visible
30 May 3.6 21:48:56 10° W 21:52:32 37° NNW 21:56:09 10° NE visible
30 May 5.0 23:29:28 10° NW 23:31:56 16° N 23:34:24 10° NNE visible
31 May 4.9 01:08:57 10° NNW 01:11:40 18° NNE 01:14:23 10° ENE visible
31 May 2.8 02:47:05 10° NW 02:50:54 51° NNE 02:54:43 10° ESE visible
31 May 3.1 04:26:05 10° WNW 04:29:13 23° SW 04:32:20 10° S visible
31 May 3.7 21:28:37 10° W 21:32:11 36° NNW 21:35:47 10° NE visible
31 May 5.1 23:09:09 10° NW 23:11:36 16° N 23:14:03 10° NNE visible
01 Jun 4.8 00:48:36 10° NNW 00:51:20 18° NNE 00:54:04 10° ENE visible
01 Jun 2.7 02:26:44 10° NW 02:30:34 53° NE 02:34:22 10° ESE visible
01 Jun 3.1 04:05:46 10° WNW 04:08:50 22° SW 04:11:55 10° S visible
01 Jun 3.7 21:08:17 10° W 21:11:50 35° NNW 21:15:25 10° NE visible
01 Jun 5.0 22:48:50 10° NW 22:51:15 16° N 22:53:42 10° NNE visible
02 Jun 4.8 00:28:15 10° NNW 00:30:59 18° NNE 00:33:44 10° ENE visible
02 Jun 2.6 02:06:22 10° NW 02:10:12 54° NNE 02:14:02 10° ESE visible
02 Jun 3.1 03:45:27 10° W 03:48:28 22° SW 03:51:30 10° S visible
02 Jun 3.8 20:47:57 10° W 20:51:29 34° NNW 20:55:03 10° NE visible
02 Jun 5.0 22:28:31 10° NW 22:30:55 16° N 22:33:19 10° NNE visible
03 Jun 4.7 00:07:53 10° NNW 00:10:38 18° NNE 00:13:24 10° ENE visible
03 Jun 2.5 01:46:00 10° NW 01:49:50 56° NNE 01:50:37 46° ENE visible
03 Jun 4.4 03:25:07 10° W 03:25:07 10° W 03:25:07 10° W visible
03 Jun 4.9 22:08:11 10° NW 22:10:34 16° N 22:12:58 10° NNE visible
03 Jun 4.7 23:47:31 10° NNW 23:50:17 18° NNE 23:53:04 10° ENE visible
04 Jun 2.6 01:25:38 10° NW 01:29:05 54° N 01:29:05 54° N visible
04 Jun 4.9 21:47:50 10° NW 21:50:12 15° N 21:52:35 10° NNE visible
04 Jun 4.6 23:27:08 10° NNW 23:29:55 19° NNE 23:32:43 10° ENE visible
05 Jun 2.9 01:05:15 10° NW 01:08:16 46° NNW 01:08:16 46° NNW visible
05 Jun 4.8 21:27:29 10° NW 21:29:50 15° N 21:32:12 10° NNE visible
05 Jun 4.5 23:06:45 10° NNW 23:09:33 19° NNE 23:12:22 10° ENE visible
06 Jun 3.0 00:44:51 10° NW 00:47:45 44° NNW 00:47:45 44° NNW visible
06 Jun 4.8 21:07:07 10° NW 21:09:28 15° N 21:11:49 10° NNE visible
06 Jun 4.5 22:46:21 10° NNW 22:49:10 19° NNE 22:52:00 10° ENE visible
07 Jun 2.9 00:24:28 10° NW 00:27:25 46° NNW 00:27:25 46° NNW visible
07 Jun 4.7 20:46:45 10° NW 20:49:05 15° N 20:51:25 10° NNE visible
07 Jun 4.4 22:25:57 10° NNW 22:28:47 19° NNE 22:31:37 10° ENE visible
